星链-32570 (STARLINK-32570)

导读

STARLINK-32570是美国太空探索技术公司(SpaceX)于2024年11月27日发射的星链(Starlink)低轨互联网通信卫星,是星链巨型星座的组成部分。它运行在近地轨道,采用霍尔推进系统,可提供全球覆盖的高速低延迟宽带互联网服务,尤其适配偏远地区网络覆盖需求,寿命末期会主动离轨在大气层销毁,减少太空垃圾。

基本信息
目录编号:
62137
目录名称:
STARLINK-32570
国际标识:
2024-222Z
轨道中心:
EARTH
卫星名称:
星链-32570
卫星全名:
星链-32570 (STARLINK-32570)
卫星状态:
在轨 (已飞行646 天)
发射日期:
2024-11-27 UTC
国别 :
美国 (US)
星等 :
--
轨道信息
数据来源 国际轨道数据 AOE轨道数据
星历时间 2026-09-04T13:25:10+0800
14小时前
查看轨道信息
2026-09-02T12:00:00+0800
2天前
查看轨道信息
半长轴 6861.143km 6861.093km
偏心率 0.0001901 0.0003036
轨道倾角 43.003° 43.006°
近地点辐角 254.222° 283.380°
升交点赤经 207.910° 219.549°
平近点角 105.842° 259.568°
近地点 481.701km 480.872km
远地点 484.311km 485.04km
周期 94.266分钟 94.265分钟
每日圈数 15.275945 15.276111
详细信息
固有亮度:
5
最大亮度:
2.5
卫星平台:
Starlink V1.0
覆盖范围:
全球
运营商:
太空探索技术公司
运营商所在国:
美国
制造商(研发单位):
太空探索技术公司
制造商所在国:
美国
使用方式:
暂无
卫星简介
Starlink 计划是 SpaceX 推出的全球卫星互联网项目,通过发射低轨道卫星,为全球尤其是偏远地区提供高速、低延迟的互联网服务。自 2019 年起,Starlink 已部署数千颗卫星,旨在缩小全球数字鸿沟,推动互联网普及。该项目还为军事、航空等行业提供通信支持,带来广泛经济效益。
2D轨道图
3D轨道图
轨道高度分析图
轨道倾角分析图
轨道综合分析图
查看轨道综合分析图
交会数据列表
事件ID 空间交会对象 最接近时刻(TCA) 交会距离 交会风险概率(CRP) 交会风险指数(CRI) 操作
CDM_260907-033005-599306-213721
2026-09-07T
03:30:36+0000
0.722 km
远距离
4.44798E-5 中风险 0.68
CDM_260906-191805-824706-213722
2026-09-06T
19:18:44+0000
1.088 km
极远距离
1.537838E-5 中风险 0.59
CDM_260906-174405-824706-213721
2026-09-06T
17:44:35+0000
1.278 km
极远距离
8.815821E-6 低风险 0.54
CDM_260901-200402-953806-213722
2026-09-01T
20:04:36+0000
1.916 km
极远距离
3.137468E-6 低风险 0.45
CDM_260906-155005-487306-213721
2026-09-06T
15:50:57+0000
1.202 km
极远距离
3.009719E-6 低风险 0.45
CDM_260906-132905-487306-213721
2026-09-06T
13:29:43+0000
1.573 km
极远距离
1.322925E-6 低风险 0.37
CDM_260906-141605-487306-213721
2026-09-06T
14:16:48+0000
1.818 km
极远距离
9.068031E-7 极低风险 0.34
CDM_260906-115505-487306-213721
2026-09-06T
11:55:34+0000
2.013 km
极远距离
7.194992E-7 极低风险 0.32